646  
ASUS41 KPHI 210413  
RWRPHI  
 
REGIONAL WEATHER ROUNDUP  
NATIONAL WEATHER SERVICE MOUNT HOLLY NJ  
1200 AM EDT MON AUG 21 2017  
 
NOTE: "FAIR" INDICATES FEW OR NO CLOUDS BELOW 12,000 FEET WITH NO  
SIGNIFICANT WEATHER AND/OR S TO VISIBILITY
.  
 
* = STATION DOES NOT REPORT PRECIPITATION (E.G. RAIN, SNOW, ETC.)  
OR FOG.
 
 
NJZ015>026-210500-  
SOUTHERN NEW JERSEY  
 
CITY SKY/WX TMP DP RH WIND PRES REMARKS
 
POMONA CLEAR 70 65 84 W3 30.18R  
WILDWOOD* CLEAR 69 67 93 CALM 30.19S  
MILLVILLE CLEAR 68 66 93 CALM 30.18S  
WRIGHTSTOWN CLEAR 68 63 84 CALM 30.16R  
MOUNT HOLLY CLEAR 65 65 100 CALM 30.18R  
TRENTON CLEAR 70 63 78 CALM 30.18R  
 

 
NJZ001>014-210500-  
NORTHERN NEW JERSEY  
 
CITY SKY/WX TMP DP RH WIND PRES REMARKS
 
SUSSEX CLEAR 63 62 97 CALM 30.18R  
ANDOVER* N/A 63 62 97 CALM 30.19S  
MORRISTOWN CLEAR 63 63 100 CALM 30.18R FOG  
NEWARK CLEAR 75 60 59 W9 30.16R  
TETERBORO CLEAR 73 61 65 NW5 30.15R  
CALDWELL CLEAR 68 64 87 S3 30.18R  
SOMERVILLE CLEAR 64 64 100 CALM 30.16R FOG  
ALLAIRE* CLEAR 69 62 78 SW5 30.19R  
TOMS RIVER* CLEAR 64 60 87 W3 30.19R  
 

 
PAZ043-044-047-054-055-060>062-066>071-210500-  
EASTERN PENNSYLVANIA  
 
CITY SKY/WX TMP DP RH WIND PRES REMARKS
 
PHILADELPHIA PTCLDY 75 66 73 SW3 30.18S  
NORTH PHILA CLEAR 71 64 78 CALM 30.19S  
BLUE BELL* CLEAR 63 63 100 CALM 30.20S  
DOYLESTOWN CLEAR 69 63 81 CALM 30.18S  
QUAKERTOWN* CLEAR 64 64 100 CALM 30.20S  
PERKASIE* FAIR 63 63 100 CALM 30.20S  
POTTSTOWN CLEAR 67 66 97 CALM 30.21R  
LANCASTER CLEAR 66 64 93 CALM 30.19R  
COATESVILLE CLEAR 66 64 94 CALM 30.21S FOG  
READING CLEAR 68 67 96 CALM 30.19R  
ALLENTOWN CLEAR 68 63 84 W3 30.18S  
MOUNT POCONO N/A 58 58 100 NW3 30.24R  
HAZLETON N/A 59 50 72 CALM 30.26R HAZE  
LEHIGHTON FAIR 61 61 100 CALM 30.20S FOG  
WILKES BARRE CLEAR 65 62 90 S3 30.19S  
 

 
DEZALL-MDZ008-012-015-019-020-210500-  
DELAWARE AND EASTERN MARYLAND  
 
CITY SKY/WX TMP DP RH WIND PRES REMARKS
 
WILMINGTON CLEAR 70 65 84 NW3 30.19S  
DOVER CLEAR 70 70 100 CALM 30.17S  
GEORGETOWN CLEAR 68 66 93 CALM 30.20R  
EASTON CLEAR N/A N/A N/A CALM 30.24R  
ABERDEEN CLEAR 65 64 98 CALM 30.19S  
PATUXENT CLEAR 69 68 96 CALM 30.19R  
OCEAN CITY CLEAR 69 69 100 CALM 30.20R  
WALLOPS ISLAND CLEAR 74 73 97 SW5 30.20R  
CAMBRIDGE PTCLDY 68 66 94 CALM 30.19R  
SALISBURY CLEAR 69 67 93 CALM 30.20R  
 

 
PAZ001-021-NYZ056-072-MDZ011-DCZ001-210500-  
OTHER NEARBY LOCATIONS  
 
CITY SKY/WX TMP DP RH WIND PRES REMARKS
 
HARRISBURG PTCLDY 71 66 84 N3 30.18R  
STATE COLLEGE CLEAR 67 60 76 CALM 30.21S  
WILLIAMSPORT CLEAR 68 65 90 CALM 30.17S  
BINGHAMTON PTCLDY 66 60 81 SW5 30.20R  
NEW YORK CITY CLEAR 75 59 57 CALM 30.19R  
BALTIMORE PTCLDY 70 67 90 CALM 30.18F  
WASHINGTON DC PTCLDY 77 70 79 SE5 30.19S  
 

 
 
 
CLICK HERE TO GO TO PREVIOUS BULLETINS.

The Nexlab PA Page
The Nexlab NJ Page
The Nexlab DE Page
The Nexlab MD Page Main Text Page